Location: Clyde
(45.1830°S, 169.3170°E)
Time: 12:20:14
(UTC+13:00)

BREEZE-M DEB (TANK) - Pass Details

Date: 24 January 2019
Orbit: 278 x 14014 km, 46.1° (Epoch: 16 February)

Event Time Altitude Azimuth Distance (km) Brightness Sun altitude
Rises 22:18:03 0° 299° (WNW) 4,631 7.3 -9.0°
Reaches altitude 10° 22:22:29 10° 303° (WNW) 2,498 5.9 -9.6°
Maximum altitude 22:26:59 47° 17° (NNE) 581 2.1 -10.2°
Enters shadow 22:29:09 10° 94° (E) 1,209 3.7 -10.5°
